Meteo Giornale » Osservazioni meteo Russia » Begishevo
ore: 22:30 - Osservazioni Meteo Begishevo
Lat. 55° 34' N Lon. 52° 5' E Alt. 196 metri s.l.m.
15 °C
Sereno
Temp. 24 Ore
13 °C
19 °C
Nord
7.2 Km/h
Dew point 12 °C
Umidità 82 %
Visibilità 10 Km
Il sole sorge alle ore 04:36
Il sole tramonta alle ore 18:26
| Data e Ora | Cielo e Fenomeni | T °C | DP °C | Um. % | Pres. hPa | Vis. km | Vento km/h | |
|---|---|---|---|---|---|---|---|---|
| Oggi h: 22:30 | Sereno | 15 | 12 | 82 | 1019 | 10 | N 7.2 | |
| Oggi h: 22:00 | Sereno | 16 | 13 | 82 | 1019 | 10 | S/SE 10.8 | |
| Oggi h: 21:30 | Nuvoloso | 15 | 12 | 82 | 1019 | 10 | N 7.2 | |
| Oggi h: 21:00 | Nuvoloso | 15 | 13 | 87 | 1019 | 10 | N 7.2 | |
| Oggi h: 20:30 | Poco Nuvoloso | 15 | 12 | 82 | 1019 | 10 | N 7.2 | |
| Oggi h: 20:00 | Sereno | 16 | 13 | 82 | 1019 | 10 | N 7.2 | |
| Oggi h: 19:30 | Sereno | 16 | 13 | 82 | 1019 | 10 | N 7.2 | |
| Oggi h: 19:00 | Sereno | 16 | 13 | 82 | 1019 | 10 | N 7.2 | |
| Oggi h: 18:30 | Sereno | 17 | 13 | 77 | 1019 | 10 | N 7.2 | |
| Oggi h: 18:00 | Sereno | 18 | 13 | 72 | 1019 | 10 | N 7.2 | |
| Oggi h: 17:30 | Sereno | 18 | 13 | 72 | 1018 | 10 | N 7.2 | |
| Oggi h: 17:00 | Sereno | 19 | 13 | 68 | 1019 | 10 | N 7.2 | |
| Oggi h: 16:30 | Sereno | 19 | 12 | 63 | 1019 | 10 | N 7.2 | |
| Oggi h: 16:00 | Sereno | 19 | 13 | 68 | 1019 | 10 | N 7.2 | |
| Oggi h: 15:30 | Sereno | 19 | 13 | 68 | 1019 | 10 | N 7.2 | |
| Oggi h: 15:00 | Coperto | 19 | 13 | 68 | 1019 | 10 | N 7.2 | |
| Oggi h: 14:30 | Coperto | 19 | 13 | 68 | 1019 | 10 | N 3.6 | |
| Oggi h: 14:00 | Coperto | 19 | 12 | 63 | 1019 | 10 | N 3.6 | |
| Oggi h: 13:30 | Coperto | 19 | 13 | 68 | 1019 | 10 | N 7.2 | |
| Oggi h: 13:00 | Coperto | 19 | 12 | 63 | 1019 | 10 | N 7.2 | |
| Oggi h: 12:30 | Coperto | 19 | 12 | 63 | 1019 | 10 | N 7.2 | |
| Oggi h: 12:00 | Molto Nuvoloso | 19 | 12 | 63 | 1019 | 10 | N 7.2 | |
| Oggi h: 11:30 | Nuvoloso | 19 | 12 | 63 | 1019 | 10 | NE 10.8 | |
| Oggi h: 11:00 | Molto Nuvoloso | 18 | 13 | 72 | 1019 | 10 | N 7.2 | |
| Oggi h: 10:30 | Molto Nuvoloso | 16 | 13 | 82 | 1018 | 10 | N 7.2 | |
| Oggi h: 10:00 | Molto Nuvoloso | 18 | 13 | 72 | 1019 | 10 | N 7.2 | |
| Oggi h: 09:30 | Sereno | 18 | 13 | 72 | 1019 | 10 | S/SE 10.8 | |
| Oggi h: 09:00 | Molto Nuvoloso | 16 | 13 | 82 | 1019 | 10 | N 7.2 | |
| Oggi h: 08:30 | Coperto | 15 | 13 | 87 | 1018 | 10 | N 3.6 | |
| Oggi h: 08:00 | Coperto | 15 | 12 | 82 | 1018 | 10 | N 7.2 | |
| Oggi h: 07:30 | Coperto | 14 | 12 | 87 | 1018 | 10 | N 7.2 | |
| Oggi h: 07:00 | Coperto | 14 | 12 | 87 | 1018 | 10 | SO 10.8 | |
| Oggi h: 06:30 | Coperto | 14 | 12 | 87 | 1018 | 10 | SO 10.8 | |
| Oggi h: 06:00 | Coperto | 14 | 12 | 87 | 1018 | 10 | S/SO 10.8 | |
| Oggi h: 05:30 | Coperto | 14 | 12 | 87 | 1018 | 10 | S/SO 10.8 | |
| Oggi h: 05:00 | Coperto | 14 | 12 | 87 | 1018 | 10 | N 7.2 | |
| Oggi h: 04:30 | Coperto | 14 | 12 | 87 | 1018 | 10 | S 10.8 | |
| Oggi h: 04:00 | Molto Nuvoloso | 14 | 12 | 87 | 1018 | 10 | S 10.8 | |
| Oggi h: 03:30 | Molto Nuvoloso | 14 | 11 | 82 | 1019 | 10 | S 10.8 | |
| Oggi h: 03:00 | Sereno | 14 | 11 | 82 | 1019 | 10 | S/SO 10.8 | |
| Oggi h: 02:30 | Sereno | 14 | 11 | 82 | 1019 | 10 | SO 10.8 | |
| Oggi h: 02:00 | Sereno | 14 | 11 | 82 | 1019 | 10 | SO 10.8 | |
| Oggi h: 01:30 | Sereno | 13 | 11 | 87 | 1019 | 10 | SO 10.8 | |
| Oggi h: 01:00 | Sereno | 13 | 11 | 87 | 1019 | 10 | SO 10.8 | |
| Oggi h: 00:30 | Sereno | 14 | 12 | 87 | 1019 | 10 | SO 14.4 | |
| Oggi h: 00:00 | Sereno | 14 | 11 | 82 | 1019 | 10 | SO 10.8 | |



